Overview Statistics Trail Chart Weather Telemetry Raw packets
 

This is the latest recevied weather packets stored in our database for station/object IU5GBO-13. If no packets are shown the sender has not sent any weather packets the latest 10 day(s).

<< 20 21 22 23 24 25 26 >>
Time Temp. Humidity Pressure Rain* Wind** Luminosity Snow
1777756576 14.44° C 54% 1022.8 hPa - - - -
1777755975 14.44° C 53% 1022.8 hPa - - - -
1777755376 14.44° C 53% 1022.6 hPa - - - -
1777754776 15° C 51% 1022.7 hPa - - - -
1777754175 15.56° C 50% 1022.7 hPa - - - -
1777753576 15.56° C 50% 1022.9 hPa - - - -
1777752976 15.56° C 49% 1022.8 hPa - - - -
1777752375 15.56° C 48% 1022.8 hPa - - - -
1777751775 15.56° C 47% 1022.8 hPa - - - -
1777751175 16.11° C 48% 1022.7 hPa - - - -
1777750576 16.11° C 49% 1022.7 hPa - - - -
1777749975 16.11° C 49% 1022.8 hPa - - - -
1777749376 16.67° C 51% 1022.6 hPa - - - -
1777748775 16.67° C 51% 1022.6 hPa - - - -
1777748175 17.22° C 49% 1022.5 hPa - - - -
1777747575 17.22° C 54% 1022.5 hPa - - - -
1777746975 17.22° C 51% 1022.4 hPa - - - -
1777746376 17.78° C 50% 1022.2 hPa - - - -
1777745776 17.78° C 52% 1022 hPa - - - -
1777745175 18.33° C 52% 1021.9 hPa - - - -
1777744575 18.33° C 50% 1022.1 hPa - - - -
1777743975 18.89° C 48% 1022 hPa - - - -
1777743376 18.89° C 47% 1021.9 hPa - - - -
1777742775 19.44° C 47% 1022 hPa - - - -
1777742176 19.44° C 45% 1022.1 hPa - - - -

* Rain since midnight (hover to see other rain measurements)
** Current wind speed in m/s (hover to see current wind gust speed)